www.pogodaiklimat.ru

Погода и климат >> Архив погоды >> Япония >> Мацумото


ПОГОДА в Мацумото

  • Прогноз погоды в Мацумото
  • Монитор погоды в Мацумото

АРХИВ ПОГОДЫ в Мацумото

Время (UTC), дата Ветер
(напр.,м/с)
 
Видим.   Явления Облачность Т
(С)
Тd
(С)
f
(%)
Тe
(С)
Тes
(С)
Комфортность P
(гПа)
Po
(гПа)
Тmin
(С)
Tmax
(С)
R
(мм)
R24
(мм)
S
(см)
22 13.06 С 1 14 км н/о +17.1 +12.8 76 +19 +19 1013.5 944.0
23 13.06 Ю 2 17 км н/о +18.7 +12.9 69 +20 +20 1012.6 943.5
00 14.06 СВ 1 15 км н/о +20.6 +12.6 60 +24 +24 комфорт 1011.4 942.9 +14.3
01 14.06 З 3 16 км н/о +22.4 +12.7 54 +25 +25 комфорт 1010.5 942.5
02 14.06 С 2 15 км н/о +24.1 +11.8 46 +26 +26 жарко 1009.3 941.8
03 14.06 С 3 19 км н/о +25.2 +10.3 39 +26 +26 жарко 1008.0 940.9
04 14.06 З 2 19 км н/о +26.5 +10.6 37 +27 +27 жарко 1007.0 940.2
05 14.06 Ю 2 20 км н/о +26.6 +5.6 26 +26 +26 жарко 1006.1 939.4
06 14.06 ЮВ 4 20 км н/о +27.5 +7.4 28 +27 +27 жарко 1005.8 939.3
07 14.06 ЮВ 5 15 км н/о +25.5 +8.9 35 +26 +26 жарко 1006.0 939.1
08 14.06 ЮВ 5 20 км н/о +24.1 +8.1 36 +25 +25 комфорт 1006.0 938.7
09 14.06 ЮВ 3 20 км н/о +22.9 +9.3 42 +24 +24 комфорт 1006.8 939.2
10 14.06 ЮВ 3 17 км н/о +21.4 +10.3 49 +23 +23 комфорт 1008.1 940.0
11 14.06 ЮВ 3 20 км н/о +20.4 +10.5 53 +22 +22 комфорт 1008.8 940.4
12 14.06 ЮВ 4 17 км н/о +20.3 +9.6 50 +22 +22 комфорт 1008.5 940.1 +28.1
13 14.06 Ю 4 19 км н/о +19.6 +10.6 56 +21 +21 комфорт 1009.2 940.6
14 14.06 ЮЗ 3 19 км н/о +18.6 +10.7 60 +19 +19 1008.7 939.9
15 14.06 С 3 20 км слаб. дождь н/о +16.3 +12.5 78 +16 +16 1008.9 939.5
16 14.06 З 3 20 км слаб. дождь н/о +15.7 +11.9 78 +15 +15 1008.5 938.9
17 14.06 С 2 15 км слаб. дождь н/о +14.9 +12.4 85 +15 +15 1007.8 938.1
18 14.06 СВ 1 7000 м слаб. дождь н/о +14.5 +13.2 92 +16 +16 1007.2 937.4 3
19 14.06 ЮЗ 1 8000 м слаб. дождь н/о +14.2 +13.4 95 +15 +15 1007.2 937.3
20 14.06 штиль 0 4300 м дождь н/о +14.0 +13.2 95 +14 +14 1007.2 937.3
21 14.06 штиль 0 5000 м дождь н/о +14.1 +13.5 96 +14 +14 1007.0 937.1
22 14.06 З 2 7000 м дождь н/о +14.1 +13.5 96 +14 +14 1006.4 936.6
23 14.06 З 3 7000 м слаб. дождь н/о +14.0 +13.4 96 +13 +13 1005.7 935.9
00 15.06 З 1 7000 м слаб. дождь н/о +13.7 +12.9 95 +14 +14 1005.0 935.2 +13.6 16
01 15.06 СЗ 4 9000 м слаб. дождь н/о +14.6 +13.5 93 +13 +13 1003.8 934.3
02 15.06 СЗ 4 17 км в посл. час дождь н/о +14.6 +13.0 90 +13 +13 1003.0 933.5
03 15.06 СЗ 4 14 км {дождь} н/о +15.3 +12.8 85 +14 +14 1001.0 931.9
04 15.06 З 2 16 км н/о +15.9 +13.2 84 +16 +16 1000.0 931.1
05 15.06 СЗ 3 20 км слаб. дождь н/о +15.6 +13.5 87 +15 +15 998.0 929.1
06 15.06 СЗ 3 14 км в посл. час дождь н/о +15.6 +13.3 86 +15 +15 996.9 928.1 1
07 15.06 СЗ 2 2700 м сильн. дождь н/о +15.0 +13.6 91 +15 +15 995.3 926.5
08 15.06 СЗ 3 12 км слаб. дождь н/о +14.6 +13.8 95 +14 +14 995.8 926.8
09 15.06 СЗ 3 12 км слаб. дождь н/о +14.7 +13.9 95 +14 +14 995.1 926.2
10 15.06 С 1 19 км слаб. дождь н/о +14.8 +13.5 92 +15 +15 994.3 925.5
11 15.06 З 1 20 км слаб. дождь н/о +14.6 +13.7 94 +15 +15 993.6 924.8
12 15.06 Ю 1 17 км слаб. дождь н/о +14.7 +13.9 95 +15 +15 993.0 924.3 +16.0 7
13 15.06 Ю 1 16 км слаб. дождь н/о +14.6 +14.1 97 +15 +15 991.6 922.9
14 15.06 З 1 12 км слаб. дождь н/о +14.6 +14.0 96 +16 +16 990.5 921.9
15 15.06 СВ 1 5000 м слаб. дождь н/о +14.3 +13.8 97 +15 +15 989.3 920.7
16 15.06 ЮВ 1 11 км слаб. дождь н/о +14.3 +14.0 98 +15 +15 988.6 920.1
17 15.06 З 1 3600 м дождь н/о +14.4 +14.1 98 +15 +15 988.4 919.9
18 15.06 СЗ 2 13 км слаб. дождь н/о +14.2 +13.9 98 +14 +14 988.0 919.5 7
19 15.06 ЮЗ 1 6000 м в посл. час дождь н/о +14.2 +13.9 98 +14 +14 988.5 919.9
20 15.06 Ю 1 4400 м дымка н/о +14.5 +14.4 99 +15 +15 988.9 920.4
21 15.06 Ю 5 20 км {дождь} н/о +17.1 +13.0 77 +16 +16 988.4 920.6
22 15.06 Ю 7 19 км слаб. дождь н/о +18.1 +12.8 71 +18 +18 988.8 921.2
23 15.06 Ю 8 19 км в посл. час дождь н/о +20.7 +12.2 58 +22 +22 комфорт 988.7 921.8
00 16.06 Ю 7 20 км {дождь} н/о +21.8 +11.5 52 +24 +24 комфорт 989.1 922.4 +14.1 7
01 16.06 Ю 8 20 км н/о +22.7 +11.5 49 +25 +25 комфорт 989.1 922.6
02 16.06 ЮЗ 7 18 км н/о +22.4 +9.9 45 +24 +24 комфорт 990.2 923.6
03 16.06 ЮЗ 9 20 км н/о +22.9 +9.0 41 +24 +24 комфорт 990.7 924.2
04 16.06 ЮЗ 8 19 км н/о +22.4 +8.9 42 +24 +24 комфорт 991.5 924.8
05 16.06 ЮЗ 8 20 км н/о +22.0 +8.5 42 +23 +23 комфорт 992.5 925.6
06 16.06 ЮЗ 8 17 км н/о +21.5 +7.7 41 +22 +22 комфорт 993.2 926.2
07 16.06 ЮЗ 7 20 км н/о +20.9 +8.2 44 +22 +22 комфорт 994.3 927.0
08 16.06 ЮЗ 5 20 км слаб. дождь н/о +19.8 +7.5 45 +20 +20 995.6 928.0
09 16.06 ЮЗ 5 20 км слаб. дождь н/о +18.9 +8.3 50 +19 +19 997.2 929.2
10 16.06 З 2 20 км слаб. дождь н/о +17.9 +8.7 55 +18 +18 998.8 930.5
11 16.06 Ю 2 20 км слаб. дождь н/о +17.1 +9.3 60 +18 +18 1000.2 931.6
12 16.06 ЮЗ 2 20 км слаб. дождь н/о +16.3 +10.8 70 +16 +16 1001.7 932.8 +23.6 0.0
13 16.06 ЮЗ 1 20 км слаб. дождь н/о +15.5 +12.3 81 +16 +16 1003.0 933.8
14 16.06 З 1 20 км слаб. дождь н/о +15.0 +11.6 80 +16 +16 1004.1 934.7
15 16.06 В 1 20 км в посл. час дождь н/о +13.8 +11.7 87 +14 +14 1005.0 935.2
16 16.06 В 1 20 км н/о +13.5 +11.0 85 +14 +14 1005.5 935.6
17 16.06 СВ 2 20 км н/о +13.3 +10.5 83 +13 +13 1006.5 936.5
18 16.06 С 2 20 км {дождь} н/о +12.2 +10.6 90 +12 +12 1008.0 937.6 0.0
19 16.06 СВ 1 20 км н/о +11.7 +9.8 88 +11 +11 1008.8 938.2
20 16.06 С 1 20 км н/о +12.0 +10.3 89 +12 +12 1009.9 939.3
21 16.06 С 2 20 км н/о +12.8 +10.5 86 +12 +12 1010.8 940.3
22 16.06 ЮЗ 2 20 км н/о +14.1 +10.9 81 +14 +14 1011.3 941.1
23 16.06 СЗ 2 20 км н/о +15.5 +9.2 66 +15 +15 1011.4 941.6
00 17.06 З 3 20 км н/о +17.1 +8.0 55 +17 +17 1011.2 941.8 +11.6 0.0
01 17.06 С 4 20 км н/о +18.4 +8.4 52 +19 +19 1010.7 941.7
02 17.06 С 3 20 км н/о +20.4 +8.7 47 +22 +22 комфорт 1010.1 941.6
03 17.06 С 3 20 км н/о +21.5 +8.8 44 +23 +23 комфорт 1009.3 941.2
04 17.06 СЗ 4 20 км н/о +22.2 +9.0 43 +24 +24 комфорт 1008.6 940.7
05 17.06 СЗ 5 20 км н/о +23.0 +8.7 40 +24 +24 комфорт 1008.2 940.5
06 17.06 С 5 19 км н/о +23.3 +9.7 42 +25 +25 комфорт 1007.9 940.3
07 17.06 С 5 20 км н/о +22.7 +9.8 44 +24 +24 комфорт 1008.1 940.4
08 17.06 С 5 19 км н/о +22.2 +10.1 46 +24 +24 комфорт 1008.4 940.5
09 17.06 С 4 19 км н/о +20.6 +10.4 52 +22 +22 комфорт 1009.5 941.1
10 17.06 СЗ 3 18 км н/о +18.3 +10.7 61 +19 +19 1010.9 941.8
11 17.06 СЗ 3 18 км н/о +16.6 +10.5 67 +17 +17 1012.2 942.6
12 17.06 С 3 14 км н/о +15.5 +10.9 74 +15 +15 1013.6 943.6 +24.2
13 17.06 С 2 15 км н/о +14.5 +10.5 77 +14 +14 1014.3 944.0
14 17.06 С 2 19 км н/о +13.9 +10.9 82 +14 +14 1015.0 944.5
15 17.06 С 2 17 км н/о +13.3 +10.8 85 +13 +13 1015.2 944.6
16 17.06 С 1 20 км н/о +13.0 +10.9 87 +13 +13 1015.3 944.6
17 17.06 ЮВ 1 20 км н/о +13.4 +10.6 83 +14 +14 1015.2 944.6
18 17.06 С 1 20 км н/о +13.2 +10.9 86 +13 +13 1015.2 944.5
19 17.06 З 1 20 км н/о +13.4 +10.0 80 +14 +14 1015.3 944.7
20 17.06 ЮЗ 1 20 км н/о +13.1 +9.6 79 +13 +13 1015.1 944.4
21 17.06 З 2 20 км н/о +13.1 +10.3 83 +13 +13 1015.2 944.5
22 17.06 В 1 20 км н/о +14.6 +11.0 79 +16 +16 1014.8 944.5
23 17.06 СЗ 1 20 км н/о +15.7 +10.7 72 +16 +16 1013.7 943.8
00 18.06 З 2 20 км н/о +18.6 +11.4 63 +20 +20 1012.1 943.0 +12.8
01 18.06 СЗ 2 20 км н/о +19.4 +11.5 60 +21 +21 комфорт 1011.0 942.2
02 18.06 З 3 20 км н/о +22.9 +11.0 47 +25 +25 комфорт 1009.3 941.5
03 18.06 Ю 5 20 км н/о +26.3 +9.6 35 +27 +27 жарко 1007.4 940.6
04 18.06 ЮВ 5 19 км н/о +26.6 +8.6 32 +27 +27 жарко 1006.5 939.8
05 18.06 Ю 5 19 км н/о +27.1 +8.5 31 +27 +27 жарко 1006.2 939.6
06 18.06 Ю 5 20 км н/о +26.3 +7.8 31 +26 +26 жарко 1006.1 939.4
07 18.06 Ю 6 18 км н/о +25.6 +8.6 34 +26 +26 жарко 1006.1 939.2
08 18.06 Ю 5 19 км н/о +24.5 +9.7 39 +25 +25 комфорт 1006.5 939.3
09 18.06 Ю 5 20 км н/о +23.6 +10.3 43 +25 +25 комфорт 1007.0 939.6
10 18.06 З 1 20 км н/о +22.0 +13.1 57 +25 +25 комфорт 1008.1 940.2
11 18.06 СЗ 2 18 км н/о +20.2 +12.7 62 +23 +23 комфорт 1009.1 940.7
12 18.06 З 1 20 км н/о +19.5 +12.5 64 +22 +22 комфорт 1009.9 941.2 +27.5
13 18.06 З 1 17 км н/о +18.9 +12.9 68 +21 +21 комфорт 1010.6 941.7
14 18.06 СВ 1 19 км н/о +17.5 +12.4 72 +19 +19 1010.9 941.6
15 18.06 С 2 13 км н/о +16.3 +12.9 80 +16 +16 1010.9 941.3
16 18.06 С 2 12 км н/о +15.9 +12.3 79 +16 +16 1010.3 940.7
17 18.06 С 2 15 км н/о +15.6 +12.2 80 +16 +16 1010.0 940.3
18 18.06 СВ 1 17 км н/о +15.3 +12.1 81 +17 +17 1010.0 940.2
19 18.06 С 2 12 км н/о +15.1 +12.2 83 +15 +15 1010.0 940.2
20 18.06 В 1 12 км н/о +15.2 +12.5 84 +16 +16 1009.7 939.9
21 18.06 СВ 2 13 км н/о +16.1 +12.3 78 +16 +16 1009.4 939.9
22 18.06 Ю 2 14 км н/о +17.7 +12.6 72 +18 +18 1008.9 939.8
23 18.06 З 2 12 км н/о +18.7 +12.7 68 +20 +20 1008.1 939.3
00 19.06 З 1 15 км н/о +20.4 +13.4 64 +24 +24 комфорт 1007.3 939.0 +14.8
01 19.06 З 2 16 км н/о +21.9 +13.3 58 +25 +25 комфорт 1006.1 938.3
02 19.06 З 2 19 км н/о +24.6 +12.9 48 +27 +27 жарко 1004.4 937.4
03 19.06 З 2 15 км н/о +25.0 +12.3 45 +27 +27 жарко 1003.6 936.7
04 19.06 ЮЗ 2 17 км н/о +25.8 +11.6 41 +27 +27 жарко 1002.6 936.0
05 19.06 З 3 11 км н/о +27.8 +11.8 37 +29 +29 жарко 1001.5 935.4
06 19.06 СЗ 6 15 км н/о +25.5 +14.9 52 +28 +28 жарко 1001.7 935.1
07 19.06 СЗ 3 15 км н/о +24.9 +15.3 55 +28 +28 жарко 1001.8 935.0
08 19.06 СЗ 5 13 км н/о +23.3 +15.1 60 +27 +27 душно 1002.4 935.2
09 19.06 СЗ 4 19 км слаб. дождь н/о +22.1 +15.2 65 +26 +26 душно 1003.6 936.0
10 19.06 З 4 14 км в посл. час дождь н/о +20.5 +15.7 74 +24 +24 комфорт 1004.4 936.4
11 19.06 СЗ 2 10 км н/о +19.8 +14.8 73 +22 +22 комфорт 1005.3 937.0
12 19.06 СЗ 2 11 км {дождь} н/о +19.3 +14.8 75 +21 +21 комфорт 1006.1 937.6 +28.6 0.0
13 19.06 СВ 1 12 км н/о +18.7 +14.8 78 +21 +21 комфорт 1006.2 937.6
14 19.06 СЗ 1 12 км н/о +18.1 +14.8 81 +20 +20 1006.4 937.6
15 19.06 З 1 13 км н/о +17.9 +14.6 81 +20 +20 1006.1 937.3
16 19.06 СЗ 1 12 км н/о +17.3 +14.6 84 +19 +19 1006.0 937.0
17 19.06 С 2 10 км н/о +16.3 +14.7 90 +17 +17 1005.9 936.7
18 19.06 С 2 9000 м дымка н/о +15.9 +14.3 90 +16 +16 1006.0 936.7
19 19.06 СЗ 1 8000 м дымка н/о +15.9 +14.3 90 +17 +17 1006.0 936.7
20 19.06 ЮЗ 1 7000 м дымка н/о +15.7 +14.6 93 +16 +16 1006.3 936.9
21 19.06 ЮЗ 1 9000 м дымка н/о +16.4 +14.9 91 +18 +18 1006.4 937.2
22 19.06 ЮЗ 1 9000 м дымка н/о +17.9 +14.6 81 +19 +19 1006.4 937.5
23 19.06 Ю 1 14 км н/о +19.1 +14.2 73 +21 +21 комфорт 1005.8 937.3
00 20.06 Ю 1 13 км н/о +20.9 +14.1 65 +25 +25 комфорт 1005.1 937.1 +15.6
01 20.06 З 3 15 км н/о +24.2 +15.4 58 +27 +27 жарко 1003.9 936.8
02 20.06 З 3 15 км н/о +25.2 +15.0 53 +28 +28 жарко 1003.4 936.6
03 20.06 З 4 15 км н/о +26.5 +14.6 48 +29 +29 жарко 1002.4 935.9
04 20.06 СЗ 3 17 км н/о +27.3 +13.6 43 +29 +29 жарко 1001.4 935.2
05 20.06 СЗ 3 14 км н/о +27.0 +13.4 43 +29 +29 жарко 1001.3 935.0
06 20.06 С 3 15 км н/о +28.3 +15.3 45 +31 +31 душно 1000.9 934.9
07 20.06 С 4 16 км н/о +28.4 +14.6 43 +31 +31 душно 1000.5 934.6
08 20.06 С 5 16 км н/о +26.6 +14.4 47 +29 +29 жарко 1001.5 935.1
09 20.06 С 5 16 км н/о +24.3 +15.5 58 +27 +27 жарко 1002.9 935.9
10 20.06 СЗ 4 11 км н/о +22.7 +15.3 63 +27 +27 душно 1004.5 937.0
11 20.06 СЗ 3 12 км н/о +21.4 +15.3 68 +25 +25 комфорт 1006.1 938.2
12 20.06 СЗ 3 13 км н/о +20.9 +15.2 70 +25 +25 комфорт 1007.3 939.2 +28.6
13 20.06 С 1 13 км н/о +20.5 +15.1 71 +24 +24 комфорт 1008.2 939.9
14 20.06 ЮЗ 1 12 км н/о +19.3 +14.6 74 +22 +22 комфорт 1008.6 940.0
15 20.06 С 1 13 км н/о +19.2 +14.9 76 +22 +22 комфорт 1008.8 940.1
16 20.06 С 2 13 км н/о +17.8 +15.1 84 +19 +19 1008.8 939.8
17 20.06 С 2 9000 м дымка н/о +17.1 +14.9 87 +17 +17 1008.7 939.5
18 20.06 С 1 9000 м дымка н/о +16.9 +14.7 87 +18 +18 1008.9 939.6
19 20.06 В 1 9000 м дымка н/о +16.8 +14.6 87 +18 +18 1009.4 940.1
20 20.06 С 1 8000 м дымка н/о +16.3 +14.5 89 +17 +17 1010.2 940.7

 

Местоположение метеостанции Мацумото (Япония): широта 36.25 долгота 137.96 высота над уровнем моря 611 м.

В архиве по умолчанию представлена погода в Мацумото за последнюю неделю. Архивные данные за месяц целиком и за предыдущие месяцы, начиная с января 2011 года, Вы можете получить, выбрав интересующий диапазон дат из раскрывающегося списка и нажав кнопку "Ввод!".


*Определитесь, кто Вы:
робот инопланетянин человек

Внимание! Время в таблицах - всемирное. Для получения местного времени необходимо прибавить поправку, которая равна 9 ч.

Смотрите также архив погоды в соседних городах и на ближайших метеорологических станциях:

Погода в Суве (Япония) (26 км)
Погода в Нагано (Япония) (51 км)
Погода в Каруидзаве (Япония) (54 км)
Погода в Такаяме (Япония) (65 км)
Погода в Ииде (Япония) (82 км)
Погода в Кофу (Япония) (84 км)
Погода в Тояме (Япония) (86 км)
Погода в Такаде (Япония) (98 км)
Погода в Маебаши (Япония) (100 км)
Погода в Фушики (Япония) (102 км)

Пояснения к столбцам:

Ветер - указаны скорость ветра в м/с - средняя за 10 мин, порывы в срок и между сроками (в фигурных скобках) и направление, откуда дует ветер: С - северный, СВ - северо-восточный, В - восточный, ЮВ - юго-восточный, Ю - южный, ЮЗ - юго-западный, З - западный, СЗ - северо-западный.
Видимость - горизонтальная дальность видимости в метрах или километрах. При видимости от 1 до 10 км при отсутствии осадков обычно наблюдается дымка, при ухудшении видимости до 1 км и менее - туман. В сухую погоду видимость может ухудшаться дымом, пылью или мглою.
Явления - указаны атмосферные явления, наблюдавшиеся в срок или в последний час перед сроком; фигурными скобками обозначены явления, наблюдавшиеся между сроками (за 1-3 часа до срока); квадратными скобками обозначены град или гололедные отложения с указанием их диаметра в мм.
Облачность - указаны через наклонную черту общая и нижняя облачность в баллах и высота нижней границы облаков в метрах; квадратными скобками обозначены формы облаков: Ci - перистые, Cs - перисто-слоистые, Cc - перисто-кучевые, Ac - высококучевые, As - высокослоистые, Sc - слоисто-кучевые, Ns - слоисто-дождевые, Cu - кучевые, Cb - кучево-дождевые. Подробнее классификацию облаков см. в Атласе облаков (PDF).
T - Температура воздуха - температура, измеренная на высоте 2 м над землей.
Td - Температура точки росы - температура, при понижении до которой содержащийся в воздухе водяной пар достигнет насыщения.
f - Относительная влажность воздуха - влажноcть воздуха, измеренная на высоте 2 м над землей.
Te - Эффективная температура - температура, которую ощущает одетый по сезону человек в тени. Характеристика душности погоды. При расчете учитывается влияние влажности воздуха и скорости ветра на теплоощущения человека.
Tes - Эффективная температура на солнце - температура, которую ощущает человек, с поправкой на солнечный нагрев. Характеристика знойности погоды. Зависит от высоты солнца над горизонтом, облачности и скорости ветра. Ночью, в пасмурную погоду, а также при ветре 12 м/с и более поправка равна нулю.
P - Атмосферное давление - приведенное к уровню моря атмосферное давление.
Po - Атмосферное давление - измеренное на уровне метеостанции атмосферное давление.
Tmin - Минимальная температура - минимум температуры воздуха на высоте 2 м над землей.
Tmax - Максимальная температура - максимум температуры воздуха на высоте 2 м над землей.
R - Количество осадков - Количество выпавших осадков за период времени, мм. При наведении курсора мыши на число - период времени, за который выпало указанное количество осадков.
R24 - Количество осадков - Количество выпавших осадков за 24 часа, мм.
S - Снежный покров - Высота снежного покрова, см. При наведении курсора мыши на число - состояние снежного покрова и степень покрытия местности в баллах.